Hourly Weather Bolshie Picherki

Today, 27 July, Tuesday

Time Temperature Precipitation Wind Pressure Humidity
00:00 +19°C° 0 mm 1 mps 756 mmHg 52%
01:00 +18°C° 0 mm 1 mps 756 mmHg 57%
02:00 +16°C° 0 mm 1 mps 756 mmHg 62%
03:00 +14°C° 0 mm 1 mps 755 mmHg 67%
04:00 +16°C° 0 mm 2 mps 755 mmHg 65%
05:00 +17°C° 0 mm 2 mps 755 mmHg 63%
06:00 +18°C° 0 mm 2 mps 755 mmHg 61%
07:00 +20°C° 0 mm 3 mps 755 mmHg 55%
08:00 +22°C° 0 mm 4 mps 755 mmHg 49%
09:00 +25°C° 0 mm 5 mps 754 mmHg 42%
10:00 +26°C° 0 mm 5 mps 754 mmHg 41%
11:00 +26°C° 0 mm 5 mps 754 mmHg 39%
12:00 +27°C° 0 mm 5 mps 753 mmHg 37%
13:00 +27°C° 0 mm 5 mps 753 mmHg 38%
14:00 +27°C° 0 mm 5 mps 753 mmHg 38%
15:00 +27°C° 0 mm 5 mps 753 mmHg 39%
16:00 +26°C° 0 mm 5 mps 752 mmHg 42%
17:00 +26°C° 0 mm 4 mps 752 mmHg 45%
18:00 +25°C° 0 mm 4 mps 752 mmHg 48%
19:00 +22°C° 0 mm 3 mps 752 mmHg 54%
20:00 +21°C° 0 mm 2 mps 752 mmHg 61%
21:00 +19°C° 0 mm 2 mps 752 mmHg 67%
22:00 +18°C° 0 mm 2 mps 752 mmHg 71%
23:00 +17°C° 0 mm 2 mps 752 mmHg 76%

Tomorrow, 28 July, Wednesday

Time Temperature Precipitation Wind Pressure Humidity
00:00 +16°C° 0 mm 2 mps 752 mmHg 81%
01:00 +15°C° 0 mm 2 mps 752 mmHg 83%
02:00 +15°C° 0 mm 2 mps 752 mmHg 85%
03:00 +15°C° 0 mm 1 mps 752 mmHg 88%
04:00 +16°C° 0 mm 1 mps 752 mmHg 82%
05:00 +16°C° 0 mm 1 mps 752 mmHg 76%
06:00 +18°C° 0 mm 1 mps 753 mmHg 70%
07:00 +19°C° 0 mm 2 mps 753 mmHg 61%
08:00 +21°C° 0 mm 2 mps 753 mmHg 51%
09:00 +24°C° 0 mm 3 mps 753 mmHg 41%
10:00 +25°C° 0 mm 3 mps 752 mmHg 39%
11:00 +26°C° 0 mm 3 mps 752 mmHg 36%
12:00 +27°C° 0 mm 3 mps 752 mmHg 34%
13:00 +27°C° 0 mm 3 mps 752 mmHg 32%
14:00 +27°C° 0 mm 3 mps 751 mmHg 31%
15:00 +28°C° 0 mm 4 mps 751 mmHg 29%
16:00 +27°C° 0 mm 4 mps 751 mmHg 31%
17:00 +26°C° 0 mm 4 mps 751 mmHg 34%
18:00 +25°C° 0 mm 4 mps 751 mmHg 36%
19:00 +22°C° 0 mm 3 mps 751 mmHg 40%
20:00 +20°C° 0 mm 2 mps 751 mmHg 45%
21:00 +18°C° 0 mm 1 mps 751 mmHg 49%
22:00 +18°C° 0 mm 1 mps 751 mmHg 50%
23:00 +16°C° 0 mm 1 mps 751 mmHg 51%

Day after tomorrow, 29 July, Thursday

Time Temperature Precipitation Wind Pressure Humidity
00:00 +16°C° 0 mm 1 mps 751 mmHg 52%
01:00 +16°C° 0 mm 1 mps 751 mmHg 52%
02:00 +16°C° 0 mm 1 mps 751 mmHg 51%
03:00 +16°C° 0 mm 1 mps 751 mmHg 50%
04:00 +17°C° 0 mm 2 mps 751 mmHg 49%
05:00 +18°C° 0 mm 2 mps 751 mmHg 48%
06:00 +19°C° 0 mm 2 mps 750 mmHg 47%
07:00 +21°C° 0 mm 3 mps 750 mmHg 46%
08:00 +23°C° 0 mm 4 mps 750 mmHg 45%
09:00 +27°C° 0 mm 4 mps 750 mmHg 43%
10:00 +26°C° 0.1 mm 4 mps 749 mmHg 51%
11:00 +24°C° 0.1 mm 3 mps 749 mmHg 59%
12:00 +23°C° 0.1 mm 2 mps 749 mmHg 66%
13:00 +21°C° 0.6 mm 2 mps 749 mmHg 74%
14:00 +20°C° 0.6 mm 2 mps 749 mmHg 82%
15:00 +20°C° 0.6 mm 1 mps 748 mmHg 90%
16:00 +18°C° 1.1 mm 2 mps 748 mmHg 92%
17:00 +18°C° 1.1 mm 2 mps 747 mmHg 94%
18:00 +18°C° 1.1 mm 3 mps 747 mmHg 96%
19:00 +18°C° 0.2 mm 3 mps 747 mmHg 96%
20:00 +18°C° 0.2 mm 3 mps 746 mmHg 95%
21:00 +18°C° 0.2 mm 3 mps 746 mmHg 95%
22:00 +17°C° 0 mm 3 mps 746 mmHg 96%
23:00 +17°C° 0 mm 2 mps 745 mmHg 96%

30 July, Friday

Time Temperature Precipitation Wind Pressure Humidity
00:00 +17°C° 0 mm 2 mps 745 mmHg 96%
01:00 +18°C° 0 mm 1 mps 745 mmHg 96%
02:00 +18°C° 0 mm 1 mps 745 mmHg 95%
03:00 +18°C° 0 mm 1 mps 745 mmHg 95%
04:00 +19°C° 0 mm 1 mps 745 mmHg 93%
05:00 +19°C° 0 mm 1 mps 745 mmHg 92%
06:00 +19°C° 0 mm 2 mps 745 mmHg 90%
07:00 +21°C° 0 mm 2 mps 745 mmHg 83%
08:00 +24°C° 0 mm 3 mps 746 mmHg 75%
09:00 +26°C° 0 mm 3 mps 746 mmHg 68%
10:00 +27°C° 0.1 mm 4 mps 745 mmHg 61%
11:00 +28°C° 0.1 mm 4 mps 745 mmHg 55%
12:00 +30°C° 0.1 mm 5 mps 745 mmHg 48%
13:00 +30°C° 0 mm 5 mps 745 mmHg 46%
14:00 +30°C° 0 mm 5 mps 745 mmHg 45%
15:00 +30°C° 0 mm 6 mps 745 mmHg 43%
16:00 +29°C° 0 mm 5 mps 745 mmHg 45%
17:00 +29°C° 0 mm 4 mps 745 mmHg 48%
18:00 +28°C° 0 mm 3 mps 745 mmHg 50%
19:00 +27°C° 0.1 mm 2 mps 745 mmHg 55%
20:00 +25°C° 0.1 mm 2 mps 746 mmHg 61%
21:00 +24°C° 0.1 mm 2 mps 746 mmHg 66%
22:00 +23°C° 0 mm 2 mps 746 mmHg 69%
23:00 +21°C° 0 mm 2 mps 746 mmHg 72%

31 July, Saturday

Time Temperature Precipitation Wind Pressure Humidity
00:00 +20°C° 0 mm 2 mps 747 mmHg 74%
01:00 +20°C° 0 mm 2 mps 747 mmHg 77%
02:00 +21°C° 0 mm 1 mps 747 mmHg 79%
03:00 +20°C° 0 mm 1 mps 747 mmHg 81%
04:00 +21°C° 0 mm 1 mps 747 mmHg 77%
05:00 +22°C° 0 mm 1 mps 748 mmHg 74%
06:00 +23°C° 0 mm 1 mps 748 mmHg 70%
07:00 +25°C° 0 mm 1 mps 748 mmHg 62%
08:00 +27°C° 0 mm 1 mps 748 mmHg 53%
09:00 +29°C° 0 mm 1 mps 748 mmHg 45%
10:00 +30°C° 0 mm 1 mps 748 mmHg 41%
11:00 +32°C° 0 mm 1 mps 748 mmHg 37%
12:00 +33°C° 0 mm 1 mps 748 mmHg 33%
13:00 +34°C° 0 mm 3 mps 748 mmHg 34%
14:00 +34°C° 0 mm 4 mps 748 mmHg 35%
15:00 +33°C° 0 mm 5 mps 747 mmHg 36%
16:00 +32°C° 0 mm 4 mps 747 mmHg 41%
17:00 +30°C° 0 mm 3 mps 747 mmHg 45%
18:00 +29°C° 0 mm 3 mps 747 mmHg 49%
19:00 +28°C° 0 mm 2 mps 747 mmHg 53%
20:00 +26°C° 0 mm 2 mps 747 mmHg 58%
21:00 +25°C° 0 mm 1 mps 748 mmHg 63%
22:00 +24°C° 0 mm 2 mps 747 mmHg 64%
23:00 +24°C° 0 mm 2 mps 747 mmHg 65%

1 August, Sunday

Time Temperature Precipitation Wind Pressure Humidity
00:00 +23°C° 0 mm 2 mps 747 mmHg 66%
01:00 +23°C° 0 mm 2 mps 747 mmHg 68%
02:00 +23°C° 0 mm 2 mps 747 mmHg 69%
03:00 +21°C° 0 mm 2 mps 747 mmHg 70%
04:00 +23°C° 0 mm 2 mps 747 mmHg 67%
05:00 +24°C° 0 mm 2 mps 747 mmHg 64%
06:00 +25°C° 0 mm 2 mps 747 mmHg 62%
07:00 +27°C° 0 mm 2 mps 747 mmHg 59%
08:00 +28°C° 0 mm 3 mps 747 mmHg 56%
09:00 +29°C° 0 mm 3 mps 747 mmHg 53%
10:00 +32°C° 0 mm 4 mps 747 mmHg 48%
11:00 +33°C° 0 mm 4 mps 747 mmHg 44%
12:00 +35°C° 0 mm 4 mps 747 mmHg 39%
13:00 +35°C° 0 mm 5 mps 747 mmHg 36%
14:00 +36°C° 0 mm 5 mps 747 mmHg 34%
15:00 +36°C° 0 mm 5 mps 747 mmHg 31%
16:00 +35°C° 0 mm 4 mps 747 mmHg 34%
17:00 +34°C° 0 mm 3 mps 747 mmHg 37%
18:00 +33°C° 0 mm 3 mps 747 mmHg 39%
19:00 +30°C° 0.2 mm 3 mps 747 mmHg 50%
20:00 +27°C° 0.2 mm 2 mps 748 mmHg 61%
21:00 +24°C° 0.2 mm 2 mps 748 mmHg 72%
22:00 +24°C° 0 mm 2 mps 748 mmHg 74%
23:00 +23°C° 0 mm 2 mps 748 mmHg 76%
Show more

We Need Your Consent

Meteoprog and our Service Providers may store and access personal data such as cookies, device identifiers or other similar technologies on your device and process such data to personalise content and ads, as well as provide social media features and to analyse the traffic.

  • Store and/or access information on your device

    Cookies, device identifiers or other information can be stored or accessed on your device for the purposes indicated above.

  • Personalised ads and content, ad and content measurement, audience insights, and products development

    Ads and content can be personalised based on a profile. More data can be added to better personalise ads and content. Ad and content performance can be measured. Insights about the audience who saw the ads and content can be derived. Such data can be used to develop or improve user’s experience, systems and software.

By clicking ‘I Agree’ you will allow the use of indicated cookies, device identifiers, web beacons or other similar technologies. Your settings can be changed in the browser on your device.

For certain purposes, legitimate interests may be relied on, rather than consent. You can read more about this in our Privacy and Cookie Policy.